| time (UTC) | temp F | wind direction | speed knots | gust knots | rain 1hr in | rain 24hr in | rain mn in | humidity % | barometer mb |
| 20260906221029 | 87 | 113 | 5.2 | 8.7 | 0.00 | 0.00 | 0.00 | 37 | 1010.6 |
| 20260906220527 | 88 | 108 | 5.2 | 8.7 | 0.00 | 0.00 | 0.00 | 36 | 1010.6 |
| 20260906220046 | 88 | 97 | 3.5 | 10.4 | 0.00 | 0.00 | 0.00 | 36 | 1010.7 |
| 20260906215526 | 88 | 92 | 6.1 | 10.4 | 0.00 | 0.00 | 0.00 | 36 | 1010.7 |
| 20260906215025 | 88 | 84 | 5.2 | 10.4 | 0.00 | 0.00 | 0.00 | 36 | 1010.7 |
| 20260906214545 | 88 | 105 | 4.3 | 11.3 | 0.00 | 0.00 | 0.00 | 36 | 1010.7 |
| 20260906214026 | 88 | 92 | 4.3 | 11.3 | 0.00 | 0.00 | 0.00 | 36 | 1010.7 |
| 20260906213524 | 88 | 54 | 5.2 | 9.6 | 0.00 | 0.00 | 0.00 | 37 | 1010.9 |
| 20260906213100 | 87 | 112 | 0.9 | 8.7 | 0.00 | 0.00 | 0.00 | 37 | 1011.0 |
| 20260906212524 | 87 | 10 | 3.5 | 8.7 | 0.00 | 0.00 | 0.00 | 37 | 1011.1 |
| 20260906212026 | 87 | 109 | 3.5 | 10.4 | 0.00 | 0.00 | 0.00 | 36 | 1011.3 |
| 20260906211557 | 87 | 37 | 4.3 | 10.4 | 0.00 | 0.00 | 0.00 | 37 | 1011.4 |
| 20260906211033 | 87 | 100 | 4.3 | 8.7 | 0.00 | 0.00 | 0.00 | 38 | 1011.4 |
| 20260906210527 | 87 | 42 | 1.7 | 8.7 | 0.00 | 0.00 | 0.00 | 37 | 1011.4 |
| 20260906210051 | 87 | 48 | 2.6 | 8.7 | 0.00 | 0.00 | 0.00 | 37 | 1011.6 |
| 20260906205525 | 87 | 65 | 4.3 | 8.7 | 0.00 | 0.00 | 0.00 | 37 | 1011.7 |
| 20260906205024 | 87 | 24 | 2.6 | 8.7 | 0.00 | 0.00 | 0.00 | 38 | 1011.6 |
| 20260906204554 | 87 | 54 | 6.1 | 8.7 | 0.00 | 0.00 | 0.00 | 37 | 1011.8 |
| 20260906204024 | 87 | 168 | 0.9 | 8.7 | 0.00 | 0.00 | 0.00 | 37 | 1011.8 |
| 20260906203525 | 87 | 86 | 4.3 | 9.6 | 0.00 | 0.00 | 0.00 | 37 | 1012.0 |
| 20260906203101 | 86 | 63 | 0.9 | 9.6 | 0.00 | 0.00 | 0.00 | 37 | 1011.9 |
| 20260906202530 | 87 | 52 | 2.6 | 9.6 | 0.00 | 0.00 | 0.00 | 38 | 1012.0 |
| 20260906202031 | 87 | 69 | 5.2 | 9.6 | 0.00 | 0.00 | 0.00 | 37 | 1012.0 |
| 20260906201559 | 87 | 45 | 5.2 | 10.4 | 0.00 | 0.00 | 0.00 | 37 | 1012.0 |
| 20260906201025 | 86 | 103 | 1.7 | 10.4 | 0.00 | 0.00 | 0.00 | 38 | 1012.0 |
| 20260906200525 | 86 | 63 | 3.5 | 8.7 | 0.00 | 0.00 | 0.00 | 38 | 1012.2 |
| 20260906200049 | 85 | 143 | 1.7 | 7.8 | 0.00 | 0.00 | 0.00 | 39 | 1012.3 |
| 20260906195525 | 85 | 61 | 2.6 | 7.0 | 0.00 | 0.00 | 0.00 | 40 | 1012.4 |
| 20260906195029 | 84 | 64 | 1.7 | 8.7 | 0.00 | 0.00 | 0.00 | 41 | 1012.4 |
| 20260906194543 | 84 | 34 | 1.7 | 8.7 | 0.00 | 0.00 | 0.00 | 41 | 1012.4 |
| 20260906194025 | 84 | 122 | 2.6 | 7.0 | 0.00 | 0.00 | 0.00 | 41 | 1012.5 |
| 20260906193530 | 83 | 41 | 2.6 | 9.6 | 0.00 | 0.00 | 0.00 | 41 | 1012.7 |
| 20260906193106 | 83 | 32 | 1.7 | 9.6 | 0.00 | 0.00 | 0.00 | 42 | 1012.7 |
| 20260906192527 | 83 | 32 | 2.6 | 7.8 | 0.00 | 0.00 | 0.00 | 41 | 1012.7 |
| 20260906192027 | 83 | 105 | 2.6 | 6.1 | 0.00 | 0.00 | 0.00 | 42 | 1013.0 |
| 20260906191556 | 83 | 82 | 1.7 | 7.0 | 0.00 | 0.00 | 0.00 | 42 | 1013.0 |
| 20260906191026 | 83 | 97 | 1.7 | 7.0 | 0.00 | 0.00 | 0.00 | 43 | 1013.2 |
| 20260906190525 | 83 | 113 | 1.7 | 5.2 | 0.00 | 0.00 | 0.00 | 43 | 1013.2 |
| 20260906190047 | 82 | 207 | 1.7 | 8.7 | 0.00 | 0.00 | 0.00 | 44 | 1013.3 |
| 20260906185529 | 81 | 0 | 1.7 | 8.7 | 0.00 | 0.00 | 0.00 | 44 | 1013.3 |
| 20260906185025 | 82 | 34 | 3.5 | 7.8 | 0.00 | 0.00 | 0.00 | 44 | 1013.5 |
| 20260906184547 | 81 | 34 | 2.6 | 7.8 | 0.00 | 0.00 | 0.00 | 45 | 1013.6 |
| 20260906184026 | 81 | 20 | 0.9 | 7.8 | 0.00 | 0.00 | 0.00 | 46 | 1013.5 |
| 20260906183526 | 80 | 51 | 1.7 | 8.7 | 0.00 | 0.00 | 0.00 | 47 | 1013.8 |
| 20260906183052 | 80 | 0 | 2.6 | 8.7 | 0.00 | 0.00 | 0.00 | 47 | 1013.8 |
| 20260906182531 | 80 | 26 | 1.7 | 8.7 | 0.00 | 0.00 | 0.00 | 47 | 1013.9 |
| 20260906182030 | 79 | 56 | 2.6 | 7.8 | 0.00 | 0.00 | 0.00 | 47 | 1014.0 |
| 20260906181624 | 79 | 41 | 3.5 | 7.8 | 0.00 | 0.00 | 0.00 | 48 | 1014.0 |
| 20260906181026 | 79 | 38 | 0.9 | 4.3 | 0.00 | 0.00 | 0.00 | 50 | 1014.1 |
| 20260906180529 | 78 | 346 | 0.9 | 5.2 | 0.00 | 0.00 | 0.00 | 51 | 1014.2 |
| 20260906180048 | 78 | 0 | 1.7 | 6.1 | 0.00 | 0.00 | 0.00 | 51 | 1014.3 |
| 20260906175526 | 77 | 329 | 1.7 | 6.1 | 0.00 | 0.00 | 0.00 | 51 | 1014.4 |
| 20260906175030 | 77 | 61 | 2.6 | 7.0 | 0.00 | 0.00 | 0.00 | 52 | 1014.5 |
| 20260906174549 | 77 | 35 | 1.7 | 7.0 | 0.00 | 0.00 | 0.00 | 52 | 1014.6 |
| 20260906174027 | 77 | 117 | 0.9 | 3.5 | 0.00 | 0.00 | 0.00 | 53 | 1014.8 |
| 20260906173533 | 76 | 36 | 0.9 | 4.3 | 0.00 | 0.00 | 0.00 | 54 | 1014.9 |
| 20260906173053 | 75 | 30 | 1.7 | 4.3 | 0.00 | 0.00 | 0.00 | 55 | 1014.9 |
| 20260906172526 | 75 | 0 | 1.7 | 4.3 | 0.00 | 0.00 | 0.00 | 55 | 1015.0 |
| 20260906172025 | 75 | 333 | 1.7 | 6.1 | 0.00 | 0.00 | 0.00 | 55 | 1015.1 |
| 20260906171603 | 75 | 32 | 1.7 | 6.1 | 0.00 | 0.00 | 0.00 | 58 | 1015.0 |
| 20260906171025 | 75 | 43 | 2.6 | 7.0 | 0.00 | 0.00 | 0.00 | 57 | 1015.1 |
| 20260906170527 | 74 | 360 | 1.7 | 7.8 | 0.00 | 0.00 | 0.00 | 57 | 1015.2 |
| 20260906170057 | 74 | 360 | 3.5 | 7.8 | 0.00 | 0.00 | 0.00 | 58 | 1015.3 |
| 20260906165528 | 74 | 360 | 2.6 | 5.2 | 0.00 | 0.00 | 0.00 | 58 | 1015.3 |
| 20260906165034 | 73 | 360 | 2.6 | 7.0 | 0.00 | 0.00 | 0.00 | 59 | 1015.4 |
| 20260906164546 | 73 | 360 | 2.6 | 7.0 | 0.00 | 0.00 | 0.00 | 59 | 1015.5 |
| 20260906164026 | 73 | 360 | 1.7 | 7.8 | 0.00 | 0.00 | 0.00 | 60 | 1015.4 |
| 20260906163524 | 72 | 360 | 2.6 | 7.8 | 0.00 | 0.00 | 0.00 | 60 | 1015.5 |
| 20260906163057 | 72 | 360 | 0.9 | 8.7 | 0.00 | 0.00 | 0.00 | 60 | 1015.7 |
| 20260906162528 | 72 | 360 | 2.6 | 8.7 | 0.00 | 0.00 | 0.00 | 60 | 1015.6 |
| 20260906162027 | 71 | 360 | 2.6 | 8.7 | 0.00 | 0.00 | 0.00 | 62 | 1015.7 |
| 20260906161549 | 71 | 360 | 2.6 | 7.8 | 0.00 | 0.00 | 0.00 | 62 | 1015.6 |
| 20260906161027 | 71 | 360 | 2.6 | 5.2 | 0.00 | 0.00 | 0.00 | 62 | 1015.7 |
| 20260906160526 | 71 | 360 | 1.7 | 5.2 | 0.00 | 0.00 | 0.00 | 62 | 1015.8 |
| 20260906160049 | 71 | 360 | 2.6 | 5.2 | 0.00 | 0.00 | 0.00 | 62 | 1015.8 |
| 20260906155527 | 71 | 360 | 2.6 | 4.3 | 0.00 | 0.00 | 0.00 | 61 | 1015.8 |
| 20260906155026 | 70 | 360 | 1.7 | 5.2 | 0.00 | 0.00 | 0.00 | 62 | 1015.7 |
| 20260906154545 | 70 | 360 | 1.7 | 5.2 | 0.00 | 0.00 | 0.00 | 59 | 1015.7 |
| 20260906154028 | 70 | 360 | 1.7 | 5.2 | 0.00 | 0.00 | 0.00 | 60 | 1015.8 |
| 20260906153528 | 69 | 360 | 2.6 | 5.2 | 0.00 | 0.00 | 0.00 | 59 | 1015.8 |
| 20260906153049 | 69 | 360 | 2.6 | 5.2 | 0.00 | 0.00 | 0.00 | 60 | 1015.8 |
| 20260906152526 | 69 | 360 | 1.7 | 5.2 | 0.00 | 0.00 | 0.00 | 57 | 1015.7 |
| 20260906152026 | 68 | 360 | 2.6 | 5.2 | 0.00 | 0.00 | 0.00 | 57 | 1015.8 |
| 20260906151553 | 68 | 360 | 2.6 | 4.3 | 0.00 | 0.00 | 0.00 | 57 | 1015.8 |
| 20260906151029 | 67 | 360 | 1.7 | 4.3 | 0.00 | 0.00 | 0.00 | 58 | 1015.8 |
| 20260906150526 | 67 | 360 | 0.9 | 3.5 | 0.00 | 0.00 | 0.00 | 58 | 1015.9 |
| 20260906150048 | 66 | 0 | 0.9 | 3.5 | 0.00 | 0.00 | 0.00 | 59 | 1015.9 |
| 20260906145524 | 65 | 360 | 0.9 | 3.5 | 0.00 | 0.00 | 0.00 | 60 | 1015.9 |
| 20260906145027 | 65 | 360 | 1.7 | 3.5 | 0.00 | 0.00 | 0.00 | 61 | 1015.8 |
| 20260906144608 | 64 | 360 | 1.7 | 3.5 | 0.00 | 0.00 | 0.00 | 62 | 1015.9 |
| 20260906144024 | 64 | 360 | 0.0 | 2.6 | 0.00 | 0.00 | 0.00 | 63 | 1016.1 |
| 20260906143526 | 63 | 0 | 0.0 | 1.7 | 0.00 | 0.00 | 0.00 | 64 | 1016.1 |
| 20260906143101 | 62 | 0 | 0.0 | 0.0 | 0.00 | 0.00 | 0.00 | 66 | 1016.1 |
| 20260906142525 | 61 | 0 | 0.0 | 0.0 | 0.00 | 0.00 | 0.00 | 68 | 1016.0 |
| 20260906142028 | 60 | 0 | 0.0 | 0.0 | 0.00 | 0.00 | 0.00 | 70 | 1016.0 |
| 20260906141551 | 59 | 0 | 0.0 | 0.0 | 0.00 | 0.00 | 0.00 | 74 | 1016.1 |
| 20260906141026 | 58 | 0 | 0.0 | 0.0 | 0.00 | 0.00 | 0.00 | 78 | 1016.1 |
| 20260906140525 | 57 | 0 | 0.0 | 0.0 | 0.00 | 0.00 | 0.00 | 80 | 1016.1 |
| 20260906140044 | 56 | 0 | 0.0 | 0.0 | 0.00 | 0.00 | 0.00 | 84 | 1016.1 |
| 20260906135528 | 54 | 0 | 0.0 | 0.0 | 0.00 | 0.00 | 0.00 | 86 | 1016.1 |
| 20260906135026 | 53 | 0 | 0.0 | 0.0 | 0.00 | 0.00 | 0.00 | 88 | 1016.0 |
| 20260906134542 | 51 | 0 | 0.0 | 0.0 | 0.00 | 0.00 | 0.00 | 88 | 1016.1 |
| 20260906134024 | 50 | 0 | 0.0 | 0.0 | 0.00 | 0.00 | 0.00 | 89 | 1016.1 |
| 20260906133525 | 50 | 0 | 0.0 | 0.0 | 0.00 | 0.00 | 0.00 | 87 | 1016.1 |
| 20260906133104 | 50 | 0 | 0.0 | 0.0 | 0.00 | 0.00 | 0.00 | 88 | 1015.9 |
| 20260906132525 | 49 | 0 | 0.0 | 0.0 | 0.00 | 0.00 | 0.00 | 88 | 1016.1 |
| 20260906132026 | 49 | 0 | 0.0 | 0.0 | 0.00 | 0.00 | 0.00 | 87 | 1016.1 |
| 20260906131549 | 49 | 0 | 0.0 | 0.0 | 0.00 | 0.00 | 0.00 | 89 | 1016.1 |
| 20260906131026 | 48 | 0 | 0.0 | 0.0 | 0.00 | 0.00 | 0.00 | 89 | 1016.1 |
| 20260906130527 | 48 | 0 | 0.0 | 0.0 | 0.00 | 0.00 | 0.00 | 88 | 1016.1 |
| 20260906130051 | 48 | 0 | 0.0 | 0.0 | 0.00 | 0.00 | 0.00 | 86 | 1016.0 |
| 20260906125525 | 48 | 0 | 0.0 | 0.0 | 0.00 | 0.00 | 0.00 | 85 | 1016.0 |
| 20260906125025 | 49 | 0 | 0.0 | 0.0 | 0.00 | 0.00 | 0.00 | 85 | 1015.9 |
| 20260906124552 | 49 | 0 | 0.0 | 0.9 | 0.00 | 0.00 | 0.00 | 87 | 1015.8 |
| 20260906124027 | 49 | 0 | 0.0 | 1.7 | 0.00 | 0.00 | 0.00 | 84 | 1015.9 |
| 20260906123524 | 50 | 0 | 0.0 | 3.5 | 0.00 | 0.00 | 0.00 | 84 | 1015.9 |
| 20260906123050 | 50 | 0 | 0.9 | 3.5 | 0.00 | 0.00 | 0.00 | 88 | 1015.7 |
| 20260906122526 | 50 | 360 | 0.9 | 2.6 | 0.00 | 0.00 | 0.00 | 86 | 1015.6 |
| 20260906122026 | 50 | 0 | 0.0 | 2.6 | 0.00 | 0.00 | 0.00 | 84 | 1015.6 |
| 20260906121547 | 50 | 0 | 0.0 | 2.6 | 0.00 | 0.00 | 0.00 | 84 | 1015.5 |
| 20260906121028 | 51 | 360 | 0.9 | 2.6 | 0.00 | 0.00 | 0.00 | 87 | 1015.5 |
| 20260906120526 | 50 | 360 | 0.9 | 3.5 | 0.00 | 0.00 | 0.00 | 87 | 1015.5 |
| 20260906120048 | 50 | 360 | 1.7 | 3.5 | 0.00 | 0.00 | 0.00 | 88 | 1015.3 |
| 20260906115525 | 49 | 360 | 0.0 | 0.0 | 0.00 | 0.00 | 0.00 | 86 | 1015.4 |
| 20260906115024 | 49 | 0 | 0.0 | 0.0 | 0.00 | 0.00 | 0.00 | 85 | 1015.4 |
| 20260906114558 | 50 | 0 | 0.0 | 0.0 | 0.00 | 0.00 | 0.00 | 84 | 1015.5 |
| 20260906114024 | 50 | 0 | 0.0 | 0.0 | 0.00 | 0.00 | 0.00 | 87 | 1015.3 |
| 20260906113526 | 50 | 0 | 0.0 | 0.0 | 0.00 | 0.00 | 0.00 | 88 | 1015.2 |
| 20260906113050 | 49 | 0 | 0.0 | 0.0 | 0.00 | 0.00 | 0.00 | 85 | 1015.1 |
| 20260906112526 | 50 | 0 | 0.0 | 0.0 | 0.00 | 0.00 | 0.00 | 82 | 1015.1 |
| 20260906112030 | 50 | 0 | 0.0 | 0.0 | 0.00 | 0.00 | 0.00 | 82 | 1015.1 |
| 20260906111545 | 50 | 0 | 0.0 | 0.0 | 0.00 | 0.00 | 0.00 | 83 | 1015.1 |
| 20260906111025 | 51 | 0 | 0.0 | 1.7 | 0.00 | 0.00 | 0.00 | 84 | 1015.0 |
| 20260906110526 | 51 | 0 | 0.0 | 1.7 | 0.00 | 0.00 | 0.00 | 85 | 1015.1 |
| 20260906110043 | 50 | 360 | 0.9 | 1.7 | 0.00 | 0.00 | 0.00 | 85 | 1015.0 |
| 20260906105528 | 50 | 0 | 0.0 | 0.0 | 0.00 | 0.00 | 0.00 | 83 | 1015.1 |
| 20260906105026 | 51 | 0 | 0.0 | 2.6 | 0.00 | 0.00 | 0.00 | 82 | 1015.0 |
| 20260906104558 | 51 | 0 | 0.0 | 2.6 | 0.00 | 0.00 | 0.00 | 83 | 1015.1 |
| 20260906104026 | 51 | 360 | 0.0 | 0.9 | 0.00 | 0.00 | 0.00 | 82 | 1015.0 |
| 20260906103526 | 51 | 0 | 0.0 | 0.0 | 0.00 | 0.00 | 0.00 | 80 | 1014.9 |
| 20260906103048 | 51 | 0 | 0.0 | 0.0 | 0.00 | 0.00 | 0.00 | 83 | 1015.0 |
| 20260906102529 | 51 | 0 | 0.0 | 0.0 | 0.00 | 0.00 | 0.00 | 80 | 1015.1 |
| 20260906102027 | 52 | 0 | 0.0 | 0.0 | 0.00 | 0.00 | 0.00 | 79 | 1015.0 |
| 20260906101548 | 52 | 0 | 0.0 | 0.0 | 0.00 | 0.00 | 0.00 | 80 | 1015.1 |
| 20260906101025 | 52 | 0 | 0.0 | 0.0 | 0.00 | 0.00 | 0.00 | 79 | 1015.0 |
| 20260906100526 | 52 | 0 | 0.0 | 0.0 | 0.00 | 0.00 | 0.00 | 79 | 1015.0 |
| 20260906100043 | 52 | 0 | 0.0 | 1.7 | 0.00 | 0.00 | 0.00 | 81 | 1015.0 |
| 20260906095528 | 52 | 0 | 0.0 | 1.7 | 0.00 | 0.00 | 0.00 | 79 | 1015.0 |
| 20260906095026 | 52 | 0 | 0.0 | 1.7 | 0.00 | 0.00 | 0.00 | 78 | 1015.1 |
| 20260906094602 | 52 | 0 | 0.0 | 0.0 | 0.00 | 0.00 | 0.00 | 80 | 1015.0 |
| 20260906094030 | 51 | 0 | 0.0 | 0.0 | 0.00 | 0.00 | 0.00 | 80 | 1015.0 |
| 20260906093525 | 52 | 0 | 0.0 | 0.0 | 0.00 | 0.00 | 0.00 | 78 | 1015.1 |
| 20260906093119 | 52 | 0 | 0.0 | 0.0 | 0.00 | 0.00 | 0.00 | 77 | 1015.1 |
| 20260906092527 | 52 | 0 | 0.0 | 0.0 | 0.00 | 0.00 | 0.00 | 77 | 1015.2 |
| 20260906092026 | 52 | 0 | 0.0 | 0.0 | 0.00 | 0.00 | 0.00 | 76 | 1015.1 |
| 20260906091549 | 53 | 0 | 0.0 | 0.0 | 0.00 | 0.00 | 0.00 | 77 | 1015.1 |
| 20260906091025 | 53 | 0 | 0.0 | 0.0 | 0.00 | 0.00 | 0.00 | 76 | 1015.1 |
| 20260906090528 | 53 | 0 | 0.0 | 0.0 | 0.00 | 0.00 | 0.00 | 79 | 1015.2 |
| 20260906090046 | 52 | 0 | 0.0 | 0.0 | 0.00 | 0.00 | 0.00 | 78 | 1015.3 |
| 20260906085527 | 52 | 0 | 0.0 | 0.0 | 0.00 | 0.00 | 0.00 | 79 | 1015.3 |
| 20260906085025 | 52 | 0 | 0.0 | 0.0 | 0.00 | 0.00 | 0.00 | 77 | 1015.4 |
| 20260906084548 | 52 | 0 | 0.0 | 0.0 | 0.00 | 0.00 | 0.00 | 77 | 1015.5 |
| 20260906084030 | 52 | 0 | 0.0 | 0.0 | 0.00 | 0.00 | 0.00 | 76 | 1015.5 |
| 20260906083526 | 52 | 0 | 0.0 | 0.0 | 0.00 | 0.00 | 0.00 | 76 | 1015.5 |
| 20260906083050 | 53 | 0 | 0.0 | 0.0 | 0.00 | 0.00 | 0.00 | 75 | 1015.6 |
| 20260906082525 | 53 | 0 | 0.0 | 0.0 | 0.00 | 0.00 | 0.00 | 75 | 1015.6 |
| 20260906082033 | 53 | 0 | 0.0 | 0.0 | 0.00 | 0.00 | 0.00 | 76 | 1015.6 |
| 20260906081550 | 53 | 0 | 0.0 | 0.0 | 0.00 | 0.00 | 0.00 | 74 | 1015.7 |
| 20260906081025 | 53 | 0 | 0.0 | 0.0 | 0.00 | 0.00 | 0.00 | 74 | 1015.8 |
| 20260906080526 | 53 | 0 | 0.0 | 0.0 | 0.00 | 0.00 | 0.00 | 73 | 1015.8 |
| 20260906080045 | 53 | 0 | 0.0 | 0.0 | 0.00 | 0.00 | 0.00 | 73 | 1015.8 |
| 20260906075529 | 53 | 0 | 0.0 | 0.0 | 0.00 | 0.00 | 0.00 | 72 | 1015.8 |
| 20260906075029 | 53 | 0 | 0.0 | 0.0 | 0.00 | 0.00 | 0.00 | 72 | 1015.9 |
| 20260906074554 | 54 | 0 | 0.0 | 0.0 | 0.00 | 0.00 | 0.00 | 71 | 1015.9 |
| 20260906074025 | 54 | 0 | 0.0 | 1.7 | 0.00 | 0.00 | 0.00 | 70 | 1016.1 |
| 20260906073525 | 55 | 0 | 0.0 | 2.6 | 0.00 | 0.00 | 0.00 | 69 | 1016.0 |
| 20260906073047 | 55 | 0 | 0.0 | 2.6 | 0.00 | 0.00 | 0.00 | 70 | 1016.0 |
| 20260906072527 | 54 | 360 | 0.9 | 2.6 | 0.00 | 0.00 | 0.00 | 70 | 1016.0 |
| 20260906072025 | 54 | 0 | 0.0 | 0.0 | 0.00 | 0.00 | 0.00 | 70 | 1016.1 |
| 20260906071549 | 55 | 0 | 0.0 | 0.9 | 0.00 | 0.00 | 0.00 | 68 | 1016.1 |
| 20260906071026 | 55 | 0 | 0.0 | 3.5 | 0.00 | 0.00 | 0.00 | 67 | 1016.1 |
| 20260906070525 | 56 | 360 | 0.9 | 3.5 | 0.00 | 0.00 | 0.00 | 67 | 1016.0 |
| 20260906070045 | 56 | 360 | 0.9 | 2.6 | 0.00 | 0.00 | 0.00 | 67 | 1016.2 |
| 20260906065531 | 56 | 360 | 0.9 | 2.6 | 0.00 | 0.00 | 0.00 | 67 | 1016.1 |
| 20260906065026 | 56 | 360 | 0.0 | 2.6 | 0.00 | 0.00 | 0.00 | 67 | 1016.2 |
| 20260906064552 | 56 | 0 | 0.0 | 2.6 | 0.00 | 0.00 | 0.00 | 66 | 1016.4 |
| 20260906064029 | 56 | 360 | 0.9 | 2.6 | 0.00 | 0.00 | 0.00 | 67 | 1016.4 |
| 20260906063528 | 56 | 360 | 0.9 | 2.6 | 0.00 | 0.00 | 0.00 | 66 | 1016.4 |
| 20260906063050 | 56 | 360 | 1.7 | 2.6 | 0.00 | 0.00 | 0.00 | 66 | 1016.5 |
| 20260906062528 | 56 | 0 | 0.0 | 1.7 | 0.00 | 0.00 | 0.00 | 66 | 1016.5 |
| 20260906062028 | 56 | 0 | 0.0 | 1.7 | 0.00 | 0.00 | 0.00 | 65 | 1016.6 |
| 20260906061546 | 57 | 0 | 0.0 | 1.7 | 0.00 | 0.00 | 0.00 | 64 | 1016.7 |
| 20260906061025 | 57 | 0 | 0.0 | 1.7 | 0.00 | 0.00 | 0.00 | 63 | 1016.6 |
| 20260906060532 | 58 | 360 | 0.0 | 2.6 | 0.00 | 0.00 | 0.00 | 63 | 1016.6 |
| 20260906060046 | 58 | 0 | 0.0 | 2.6 | 0.00 | 0.00 | 0.00 | 62 | 1016.6 |
| 20260906055525 | 59 | 360 | 1.7 | 2.6 | 0.00 | 0.00 | 0.00 | 61 | 1016.7 |
| 20260906055028 | 59 | 360 | 1.7 | 2.6 | 0.00 | 0.00 | 0.00 | 61 | 1016.6 |
| 20260906054551 | 59 | 360 | 0.9 | 2.6 | 0.00 | 0.00 | 0.00 | 61 | 1016.7 |
| 20260906054029 | 60 | 0 | 0.0 | 2.6 | 0.00 | 0.00 | 0.00 | 60 | 1016.6 |
| 20260906053527 | 60 | 0 | 0.0 | 2.6 | 0.00 | 0.00 | 0.00 | 59 | 1016.6 |
| 20260906053050 | 60 | 360 | 0.0 | 1.7 | 0.00 | 0.00 | 0.00 | 59 | 1016.7 |
| 20260906052529 | 60 | 0 | 0.0 | 0.0 | 0.00 | 0.00 | 0.00 | 59 | 1016.5 |
| 20260906052029 | 61 | 0 | 0.0 | 0.9 | 0.00 | 0.00 | 0.00 | 59 | 1016.6 |
| 20260906051601 | 60 | 0 | 0.0 | 4.3 | 0.00 | 0.00 | 0.00 | 58 | 1016.7 |
| 20260906051029 | 60 | 0 | 0.0 | 4.3 | 0.00 | 0.00 | 0.00 | 59 | 1016.9 |
| 20260906050525 | 59 | 360 | 1.7 | 3.5 | 0.00 | 0.00 | 0.00 | 61 | 1016.7 |
| 20260906050049 | 58 | 0 | 0.0 | 3.5 | 0.00 | 0.00 | 0.00 | 62 | 1016.6 |
| 20260906045528 | 58 | 360 | 0.9 | 3.5 | 0.00 | 0.00 | 0.00 | 61 | 1016.7 |
| 20260906045028 | 58 | 0 | 0.0 | 3.5 | 0.00 | 0.00 | 0.00 | 61 | 1017.1 |
| 20260906044557 | 58 | 360 | 0.9 | 3.5 | 0.00 | 0.00 | 0.00 | 62 | 1017.3 |
| 20260906044029 | 58 | 360 | 0.0 | 3.5 | 0.00 | 0.00 | 0.00 | 62 | 1017.0 |
| 20260906043526 | 58 | 0 | 0.0 | 0.0 | 0.00 | 0.00 | 0.00 | 62 | 1017.0 |
| 20260906043045 | 58 | 0 | 0.0 | 0.0 | 0.00 | 0.00 | 0.00 | 61 | 1016.9 |
| 20260906042525 | 58 | 0 | 0.0 | 1.7 | 0.00 | 0.00 | 0.00 | 61 | 1016.8 |
| 20260906042025 | 59 | 0 | 0.0 | 2.6 | 0.00 | 0.00 | 0.00 | 60 | 1016.9 |
| 20260906041557 | 58 | 360 | 0.9 | 2.6 | 0.00 | 0.00 | 0.00 | 61 | 1016.9 |
| 20260906041030 | 58 | 360 | 0.9 | 2.6 | 0.00 | 0.00 | 0.00 | 61 | 1016.7 |
| 20260906040527 | 58 | 360 | 0.0 | 2.6 | 0.00 | 0.00 | 0.00 | 61 | 1016.8 |
| 20260906035525 | 59 | 0 | 0.0 | 1.7 | 0.00 | 0.00 | 0.00 | 60 | 1016.8 |
| 20260906035032 | 59 | 0 | 0.0 | 2.6 | 0.00 | 0.00 | 0.00 | 60 | 1016.7 |
| 20260906034551 | 59 | 0 | 0.9 | 2.6 | 0.00 | 0.00 | 0.00 | 59 | 1016.7 |
| 20260906034026 | 60 | 360 | 0.9 | 3.5 | 0.00 | 0.00 | 0.00 | 60 | 1016.7 |
| 20260906033526 | 59 | 360 | 1.7 | 3.5 | 0.00 | 0.00 | 0.00 | 59 | 1016.7 |
| 20260906033050 | 60 | 360 | 0.9 | 2.6 | 0.00 | 0.00 | 0.00 | 59 | 1016.7 |
| 20260906032525 | 60 | 0 | 0.0 | 0.9 | 0.00 | 0.00 | 0.00 | 58 | 1016.6 |
| 20260906032027 | 61 | 0 | 0.0 | 2.6 | 0.00 | 0.00 | 0.00 | 56 | 1016.6 |
| 20260906031553 | 61 | 0 | 0.0 | 2.6 | 0.00 | 0.00 | 0.00 | 56 | 1016.4 |
| 20260906031026 | 61 | 360 | 0.0 | 2.6 | 0.00 | 0.00 | 0.00 | 56 | 1016.4 |
| 20260906030525 | 61 | 360 | 0.0 | 0.0 | 0.00 | 0.00 | 0.00 | 56 | 1016.2 |
| 20260906030052 | 62 | 0 | 0.0 | 2.6 | 0.00 | 0.00 | 0.00 | 55 | 1016.3 |
| 20260906025528 | 62 | 0 | 0.0 | 2.6 | 0.00 | 0.00 | 0.00 | 54 | 1016.2 |
| 20260906025027 | 62 | 360 | 0.9 | 1.7 | 0.00 | 0.00 | 0.00 | 54 | 1016.1 |
| 20260906024551 | 62 | 0 | 0.0 | 2.6 | 0.00 | 0.00 | 0.00 | 53 | 1016.0 |
| 20260906024027 | 63 | 0 | 0.0 | 2.6 | 0.00 | 0.00 | 0.00 | 53 | 1015.9 |
| 20260906023528 | 63 | 0 | 0.9 | 2.6 | 0.00 | 0.00 | 0.00 | 51 | 1016.0 |
| 20260906023044 | 65 | 0 | 0.0 | 2.6 | 0.00 | 0.00 | 0.00 | 50 | 1015.8 |
| 20260906022531 | 65 | 360 | 0.0 | 2.6 | 0.00 | 0.00 | 0.00 | 49 | 1015.8 |
| 20260906022028 | 66 | 360 | 0.0 | 1.7 | 0.00 | 0.00 | 0.00 | 49 | 1015.7 |
| 20260906021547 | 66 | 360 | 0.0 | 2.6 | 0.00 | 0.00 | 0.00 | 48 | 1015.8 |
| 20260906021025 | 67 | 0 | 0.0 | 2.6 | 0.00 | 0.00 | 0.00 | 47 | 1015.6 |
| 20260906020534 | 68 | 360 | 0.0 | 2.6 | 0.00 | 0.00 | 0.00 | 46 | 1015.8 |
| 20260906020046 | 69 | 0 | 0.0 | 0.0 | 0.00 | 0.00 | 0.00 | 44 | 1015.7 |
| 20260906015526 | 70 | 0 | 0.0 | 1.7 | 0.00 | 0.00 | 0.00 | 44 | 1015.6 |
| 20260906015026 | 71 | 0 | 0.0 | 1.7 | 0.00 | 0.00 | 0.00 | 43 | 1015.6 |
| 20260906014633 | 71 | 0 | 0.0 | 3.5 | 0.00 | 0.00 | 0.00 | 42 | 1015.6 |
| 20260906014027 | 72 | 0 | 0.0 | 3.5 | 0.00 | 0.00 | 0.00 | 40 | 1015.6 |
| 20260906013528 | 72 | 0 | 0.9 | 3.5 | 0.00 | 0.00 | 0.00 | 39 | 1015.6 |
| 20260906013059 | 73 | 0 | 0.9 | 3.5 | 0.00 | 0.00 | 0.00 | 39 | 1015.5 |
| 20260906012528 | 74 | 360 | 0.0 | 3.5 | 0.00 | 0.00 | 0.00 | 39 | 1015.6 |
| 20260906012031 | 74 | 360 | 0.9 | 3.5 | 0.00 | 0.00 | 0.00 | 38 | 1015.6 |
| 20260906011554 | 74 | 360 | 1.7 | 3.5 | 0.00 | 0.00 | 0.00 | 38 | 1015.6 |
| 20260906011026 | 75 | 360 | 1.7 | 3.5 | 0.00 | 0.00 | 0.00 | 37 | 1015.5 |
| 20260906010527 | 75 | 0 | 0.0 | 1.7 | 0.00 | 0.00 | 0.00 | 37 | 1015.6 |
| 20260906010053 | 76 | 0 | 0.0 | 3.5 | 0.00 | 0.00 | 0.00 | 37 | 1015.6 |
| 20260906005525 | 76 | 360 | 0.9 | 4.3 | 0.00 | 0.00 | 0.00 | 36 | 1015.5 |
| 20260906005027 | 77 | 0 | 0.0 | 7.0 | 0.00 | 0.00 | 0.00 | 36 | 1015.6 |
| 20260906004610 | 77 | 360 | 1.7 | 12.2 | 0.00 | 0.00 | 0.00 | 35 | 1015.5 |
| 20260906004036 | 78 | 360 | 4.3 | 12.2 | 0.00 | 0.00 | 0.00 | 34 | 1015.3 |
| 20260906003526 | 79 | 53 | 4.3 | 8.7 | 0.00 | 0.00 | 0.00 | 33 | 1015.3 |
| 20260906003108 | 80 | 30 | 2.6 | 10.4 | 0.00 | 0.00 | 0.00 | 33 | 1015.3 |
| 20260906002525 | 80 | 43 | 2.6 | 10.4 | 0.00 | 0.00 | 0.00 | 33 | 1015.2 |
| 20260906002027 | 80 | 342 | 5.2 | 10.4 | 0.00 | 0.00 | 0.00 | 32 | 1015.3 |
| 20260906001551 | 81 | 44 | 4.3 | 11.3 | 0.00 | 0.00 | 0.00 | 33 | 1015.4 |
| 20260906001027 | 81 | 42 | 2.6 | 11.3 | 0.00 | 0.00 | 0.00 | 32 | 1015.4 |
| 20260906000526 | 82 | 56 | 5.2 | 10.4 | 0.00 | 0.00 | 0.00 | 31 | 1015.5 |
| 20260906000047 | 83 | 69 | 4.3 | 8.7 | 0.00 | 0.00 | 0.00 | 31 | 1015.4 |
| 20260905235528 | 83 | 53 | 3.5 | 8.7 | 0.00 | 0.00 | 0.00 | 30 | 1015.3 |
| 20260905235030 | 83 | 59 | 4.3 | 8.7 | 0.00 | 0.00 | 0.00 | 30 | 1015.4 |
| 20260905234544 | 84 | 55 | 4.3 | 7.8 | 0.00 | 0.00 | 0.00 | 30 | 1015.3 |
| 20260905234029 | 84 | 96 | 4.3 | 7.8 | 0.00 | 0.00 | 0.00 | 30 | 1015.3 |
| 20260905233533 | 84 | 51 | 3.5 | 7.0 | 0.00 | 0.00 | 0.00 | 29 | 1015.2 |
| 20260905233050 | 83 | 59 | 3.5 | 7.8 | 0.00 | 0.00 | 0.00 | 30 | 1015.1 |
| 20260905232533 | 83 | 43 | 3.5 | 7.8 | 0.00 | 0.00 | 0.00 | 30 | 1015.3 |
| 20260905232027 | 83 | 28 | 4.3 | 7.8 | 0.00 | 0.00 | 0.00 | 30 | 1015.2 |
| 20260905231549 | 83 | 57 | 2.6 | 8.7 | 0.00 | 0.00 | 0.00 | 31 | 1015.3 |
| 20260905231026 | 83 | 42 | 3.5 | 8.7 | 0.00 | 0.00 | 0.00 | 31 | 1015.3 |
| 20260905230526 | 83 | 61 | 3.5 | 8.7 | 0.00 | 0.00 | 0.00 | 31 | 1015.3 |
| 20260905230051 | 83 | 65 | 2.6 | 7.8 | 0.00 | 0.00 | 0.00 | 29 | 1015.2 |
| 20260905225528 | 83 | 59 | 2.6 | 7.8 | 0.00 | 0.00 | 0.00 | 29 | 1015.3 |
| 20260905225027 | 83 | 47 | 0.0 | 7.8 | 0.00 | 0.00 | 0.00 | 29 | 1015.3 |
| 20260905224549 | 83 | 42 | 2.6 | 7.8 | 0.00 | 0.00 | 0.00 | 29 | 1015.4 |
| 20260905224025 | 84 | 63 | 3.5 | 8.7 | 0.00 | 0.00 | 0.00 | 29 | 1015.4 |
| 20260905223527 | 83 | 88 | 3.5 | 8.7 | 0.00 | 0.00 | 0.00 | 29 | 1015.5 |
| 20260905223046 | 84 | 64 | 4.3 | 8.7 | 0.00 | 0.00 | 0.00 | 29 | 1015.6 |
| 20260905222527 | 83 | 96 | 4.3 | 7.0 | 0.00 | 0.00 | 0.00 | 29 | 1015.6 |
| 20260905222026 | 83 | 121 | 1.7 | 7.0 | 0.00 | 0.00 | 0.00 | 30 | 1015.6 |
| 20260905221610 | 83 | 49 | 1.7 | 7.0 | 0.00 | 0.00 | 0.00 | 29 | 1015.6 |